Flag for China Weather past 2 weeks in Foochow, Fujian, China

Now
50 °F

Overcast.


Feels Like: 47 °F
Forecast: 41 / 60 °F
Wind: 8 mph from Northeast

Location: Fuzhou Airport

Current Time: Feb 1, 2015 at 3:37:40 PM

Latest Report: Feb 1, 2015 at 3:00 PM


Visibility: 5 mi

Pressure: 30.36 "Hg

Humidity: 62%

Dew point: 37 °F

Location of FoochowLocation

Historic Weather in Foochow — Graph

°F

Foochow temperature yesterday

Maximum temperature yesterday: 48 °F (at 12:00 AM)
Minimum temperature yesterday: 46 °F (at 3:00 AM)
Average temperature yesterday: 47 °F

Past Weeks' High & Low Weather Summary

 TemperatureHumidityPressure
High66 °F (Jan 21, 1:00 PM)94% (Jan 25, 8:00 AM)30.48 "Hg (Jan 25, 8:00 AM)
Low45 °F (Jan 18, 5:00 AM)27% (Jan 22, 11:00 AM)30.07 "Hg (Jan 21, 2:00 PM)
Average53 °F72%30.24 "Hg
* Reported Jan 17 2:00 PM — Feb 1 2:00 PM, Foochow, Weather by CustomWeather, © 2014

Note: Actual official high and low records may vary slightly from our data, if they occured in-between our weather recording intervals... More about our weather records

Advertising

Foochow weather history for previous 24 hours

 ConditionsComfort  
Time TempWeatherWind HumidityBarometerVisibility
2:00 PM
Feb 1
50 °FOvercast.8 mph62%30.39 "Hg4 mi
1:00 PM50 °FOvercast.8 mph58%30.42 "Hg4 mi
12:00 PM50 °FOvercast.8 mph58%30.45 "Hg4 mi
11:00 AM50 °FOvercast.10 mph54%30.45 "Hg4 mi
10:00 AM48 °FOvercast.10 mph58%30.48 "Hg4 mi
9:00 AM48 °FOvercast.13 mph58%30.48 "Hg4 mi
8:00 AM46 °FOvercast.15 mph66%30.45 "Hg4 mi
7:00 AM46 °FOvercast.15 mph66%30.45 "Hg4 mi
6:00 AM46 °FOvercast.13 mph66%30.45 "Hg5 mi
5:00 AM46 °FOvercast.15 mph66%30.42 "Hg5 mi
4:00 AM46 °FOvercast.13 mph66%30.42 "Hg5 mi
3:00 AM46 °FOvercast.15 mph66%30.45 "Hg5 mi
2:00 AM46 °FOvercast.17 mph66%30.45 "Hg6 mi
1:00 AM46 °FOvercast.15 mph66%30.45 "Hg6 mi
12:00 AM46 °FPassing clouds.20 mph66%30.45 "Hg6 mi
11:00 PM
Jan 31
46 °FOvercast.15 mph71%30.45 "Hg5 mi
10:00 PM46 °FOvercast.17 mph71%30.45 "Hg5 mi
9:00 PM48 °FPassing clouds.17 mph62%30.45 "Hg4 mi
8:00 PM46 °FPassing clouds.17 mph71%30.45 "Hg4 mi
7:00 PM46 °FPassing clouds.17 mph71%30.45 "Hg3 mi
6:00 PM46 °FPassing clouds.15 mph71%30.45 "Hg4 mi
5:00 PM46 °FOvercast.15 mph66%30.42 "Hg3 mi
4:00 PM48 °FOvercast.17 mph62%30.42 "Hg3 mi
3:00 PM48 °FOvercast.17 mph62%30.39 "Hg3 mi
Weather by CustomWeather, © 2014

See weather overviewHow to use our weather pages